RESULTADOS DE LA FECHA: Domingo 17 de Noviembre, 2019 C2 | Ver Clase 2 | Ver Clase 3
FINAL C2
Puesto Nro Piloto Marca Vtas Tiempo Dif.
1 69 Agustin HERRERA RENAULT CLIO 16 32:38.272
2 14 Ever FRANETOVICH FIAT PALIO 16 32:39.159 0.887
3 120 Geronimo NUNEZ NISSAN MARCH 16 32:40.004 1.732
4 6 Miguel CIAURRO VW TREND 16 32:44.395 6.123
5 150 Damian MARKEL TOYOTA ETIOS 16 32:45.941 7.669
6 25 Sebastian PEREZ CHEVROLET ONIX 16 32:47.402 9.130
7 35 Diego LEANEZ TOYOTA ETIOS 16 32:54.095 15.823
8 36 Alejo BORGIANI VW TREND 16 32:56.325 18.053
9 73 Lucas BAGNERA RENAULT CLIO 16 32:57.736 19.464
10 31 Facundo LEANEZ TOYOTA ETIOS 16 32:59.482 21.210
11 65 Fernando GOMEZ FREDES NISSAN MARCH 16 33:00.337 22.065
12 112 Damian ROMERO TOYOTA ETIOS 16 33:01.927 23.655
13 7 Maximiliano BESTANI NISSAN MARCH 16 33:02.746 24.474
14 54 Facundo ROTONDO FIESTA KINETIC 16 33:05.605 27.333
15 100 Ian REUTEMANN FIESTA KINETIC 16 33:05.791 27.519
16 78 Alejandro WEIMANN TOYOTA ETIOS 16 33:08.914 30.642
17 32 Sergio FERNANDEZ NISSAN MARCH 16 33:11.856 33.584
18 141 Juan Pablo ROTONDO FIESTA KINETIC 16 33:12.633 34.361
19 47 Ignacio PROCACITTO VW TREND 16 33:13.255 34.983
20 79 Andres CALDERON VW TREND 16 33:31.635 53.363
21 13 Joel BORGOBELLO VW TREND 16 33:32.917 54.645
22 18 Marcos FERNANDEZ NISSAN MARCH 15 31:12.800 1 Vuelta
23 1 Nicolas POSCO FIESTA KINETIC 15 31:45.074 1 Vuelta
24 113 Christian BODRATO MIONETT RENAULT CLIO 14 29:59.634 2 Vueltas
43 Walter LOPEZ NISSAN MARCH 10 22:06.639 6 Vueltas
159 Agustin BONOMO DS3 8 18:09.861 8 Vueltas
21 Gabriel SCORDIA FIESTA KINETIC 7 16:15.531 9 Vueltas
63 Renzo TESTA FIAT PALIO 4 8:57.829 12 Vueltas
99 Luciano GONZALEZ RENAULT CLIO 4 9:06.907 12 Vueltas
66 Martin ALESSI RENAULT CLIO 4 9:22.008 12 Vueltas
61 Sergio SPEDALIERI RENAULT CLIO 4 9:34.629 12 Vueltas
72 Lucas TEDESCHI TOYOTA ETIOS 4 9:40.308 12 Vueltas
11 Gaston IANSA FIESTA KINETIC 2 5:17.742 14 Vueltas
9 Juan M. ELUCHANS TOYOTA ETIOS 1 2:38.029 15 Vueltas
39 Alejandro VALDERREY FIAT PALIO

No Largo Auto Nro. 5.

Auto Nro. 24 Excluido por maniobra peligrosa al Auto Nro. 18.

Auto Nro. 13 Recargo de puestos por maniobra peligrosa a los Autos Nro. 47 y 113.

Auto Nro.2 excluido mas 2 grillas proximo evento por maniobra peligrosa al Auto Nro. 43.

Descargas
Título Archivo Descarga
203-264-final-clase-2.xls
SERIES
PRIMERA SERIE C2
Puesto Nro Piloto Marca Vtas Tiempo Dif.
1 14 Ever FRANETOVICH FIAT PALIO 6 12:26.505
2 120 Geronimo NUNEZ NISSAN MARCH 6 12:30.591 4.086
3 18 Marcos FERNANDEZ NISSAN MARCH 6 12:32.282 5.777
4 150 Damian MARKEL TOYOTA ETIOS 6 12:34.230 7.725
5 11 Gaston IANSA FIESTA KINETIC 6 12:36.674 10.169
6 25 Sebastian PEREZ CHEVROLET ONIX 6 12:37.047 10.542
7 6 Miguel CIAURRO VW TREND 6 12:37.068 10.563
8 65 Fernando GOMEZ FREDES NISSAN MARCH 6 12:37.588 11.083
9 43 Walter LOPEZ NISSAN MARCH 6 12:38.421 11.916
10 54 Facundo ROTONDO FIESTA KINETIC 6 12:39.842 13.337
11 47 Ignacio PROCACITTO VW TREND 6 12:40.396 13.891
12 39 Alejandro VALDERREY FIAT PALIO 6 12:42.477 15.972
13 112 Damian ROMERO TOYOTA ETIOS 6 12:43.223 16.718
14 78 Alejandro WEIMANN TOYOTA ETIOS 6 12:43.721 17.216
15 21 Gabriel SCORDIA FIESTA KINETIC 6 12:46.040 19.535
16 79 Andres CALDERON VW TREND 6 13:46.700 1:20.195
113 Christian BODRATO MIONETT RENAULT CLIO 3 7:04.327 3 Vueltas
66 Martin ALESSI RENAULT CLIO 1 2:29.191 5 Vueltas
5 Gaston GRASSO TOYOTA ETIOS

Auto Nro. 199 Excluido parcialmente por maniobra peligrosa al Auto Nro. 5.

Auto Nro. 113 apercibido por maniobra peligrosa a los Autos Nro. 6 y 25.

Auto Nro. 11 Recargado con 5 segundos por falsa largada.

Descargas
Título Archivo Descarga
203-137-1-serie-clase-2.xls
SEGUNDA SERIE C2
Puesto Nro Piloto Marca Vtas Tiempo Dif.
1 1 Nicolas POSCO FIESTA KINETIC 6 10:59.616
2 69 Agustin HERRERA RENAULT CLIO 6 11:02.920 3.304
3 2 Juan P. PASTORI TOYOTA ETIOS 6 11:07.386 7.770
4 63 Renzo TESTA FIAT PALIO 6 11:08.058 8.442
5 73 Lucas BAGNERA RENAULT CLIO 6 11:10.741 11.125
6 7 Maximiliano BESTANI NISSAN MARCH 6 11:13.786 14.170
7 36 Alejo BORGIANI VW TREND 6 11:14.433 14.817
8 72 Lucas TEDESCHI TOYOTA ETIOS 6 11:17.223 17.607
9 24 Juan I. CANELA FIESTA KINETIC 6 11:22.258 22.642
10 35 Diego LEANEZ TOYOTA ETIOS 6 11:23.014 23.398
11 99 Luciano GONZALEZ RENAULT CLIO 6 11:23.020 23.404
12 141 Juan Pablo ROTONDO FIESTA KINETIC 6 11:23.084 23.468
13 100 Ian REUTEMANN FIESTA KINETIC 6 11:23.469 23.853
14 31 Facundo LEANEZ TOYOTA ETIOS 6 11:26.416 26.800
15 159 Agustin BONOMO DS3 6 11:33.714 34.098
16 61 Sergio SPEDALIERI RENAULT CLIO 6 12:37.497 1:37.881
17 13 Joel BORGOBELLO VW TREND 5 9:21.134 1 Vuelta
18 9 Juan M. ELUCHANS TOYOTA ETIOS 5 9:30.796 1 Vuelta
32 Sergio FERNANDEZ NISSAN MARCH 3 5:43.657 3 Vueltas

Auto Nro. 9 apercibido por maniobra peligrosa al Auto Nro. 31.

Auto Nro. 99 Recargado con 2 puestos por maniobra peligrosa al Auto Nro. 35.

Descargas
Título Archivo Descarga
203-212-2-serie-clase-2.xls
TERCERA SERIE C2
Puesto Nro Piloto Marca Vtas Tiempo Dif.
Descargas
CLASIFICACIONES
1° CLASIFICACIÓN C2
Puesto Nro Piloto Marca Vtas Tiempo Dif.
1 14 Ever FRANETOVICH FIAT PALIO 3 1:48.411
2 1 Nicolas POSCO FIESTA KINETIC 4 1:48.430 0.019
3 6 Miguel CIAURRO VW TREND 3 1:48.626 0.215
4 11 Gaston IANSA FIESTA KINETIC 5 1:48.788 0.377
5 150 Damian MARKEL TOYOTA ETIOS 4 1:48.813 0.402
6 63 Renzo TESTA FIAT PALIO 3 1:48.818 0.407
7 13 Joel BORGOBELLO VW TREND 3 1:48.830 0.419
8 18 Marcos FERNANDEZ NISSAN MARCH 4 1:48.834 0.423
9 120 Geronimo NUNEZ NISSAN MARCH 4 1:48.986 0.575
10 113 Christian BODRATO MIONETT RENAULT CLIO 3 1:49.018 0.607
11 43 Walter LOPEZ NISSAN MARCH 4 1:49.045 0.634
12 2 Juan P. PASTORI TOYOTA ETIOS 3 1:49.132 0.721
13 31 Facundo LEANEZ TOYOTA ETIOS 4 1:49.146 0.735
14 9 Juan M. ELUCHANS TOYOTA ETIOS 3 1:49.194 0.783
15 72 Lucas TEDESCHI TOYOTA ETIOS 3 1:49.252 0.841
16 69 Agustin HERRERA RENAULT CLIO 4 1:49.254 0.843
17 25 Sebastian PEREZ CHEVROLET ONIX 3 1:49.257 0.846
18 112 Damian ROMERO TOYOTA ETIOS 3 1:49.400 0.989
19 73 Lucas BAGNERA RENAULT CLIO 4 1:49.439 1.028
20 178 Ramiro ALCAINE TOYOTA ETIOS 3 1:49.440 1.029
21 36 Alejo BORGIANI VW TREND 4 1:49.565 1.154
22 47 Ignacio PROCACITTO VW TREND 3 1:49.648 1.237
23 141 Juan Pablo ROTONDO FIESTA KINETIC 4 1:49.664 1.253
24 39 Alejandro VALDERREY FIAT PALIO 4 1:49.924 1.513
25 7 Maximiliano BESTANI NISSAN MARCH 4 1:50.077 1.666
26 5 Gaston GRASSO TOYOTA ETIOS 4 1:50.084 1.673
27 78 Alejandro WEIMANN TOYOTA ETIOS 3 1:50.177 1.766
28 32 Sergio FERNANDEZ NISSAN MARCH 4 1:50.211 1.800
29 99 Luciano GONZALEZ RENAULT CLIO 4 1:50.240 1.829
30 24 Juan I. CANELA FIESTA KINETIC 3 1:50.349 1.938
31 35 Diego LEANEZ TOYOTA ETIOS 4 1:50.492 2.081
32 66 Martin ALESSI RENAULT CLIO 1 1:50.656 2.245
33 65 Fernando GOMEZ FREDES NISSAN MARCH 4 1:50.744 2.333
34 199 Emiliano GIACOPONI CHEVROLET CORSA 4 1:51.125 2.714
35 100 Ian REUTEMANN FIESTA KINETIC 4 1:51.467 3.056
36 54 Facundo ROTONDO FIESTA KINETIC 4 1:51.771 3.360
37 21 Gabriel SCORDIA FIESTA KINETIC 3 1:52.094 3.683
38 159 Agustin BONOMO DS3 4 1:52.758 4.347
39 79 Andres CALDERON VW TREND 3 1:57.230 8.819
40 61 Sergio SPEDALIERI RENAULT CLIO 4 2:05.284 16.873
Descargas
Título Archivo Descarga
203-299-1-clasifica-clase-2.xls
2° CLASIFICACIÓN C2
Puesto Nro Piloto Marca Vtas Tiempo Dif.
1 14 Ever FRANETOVICH FIAT PALIO 1 1:46.832
2 1 Nicolas POSCO FIESTA KINETIC 3 1:47.151 0.319
3 11 Gaston IANSA FIESTA KINETIC 4 1:47.294 0.462
4 69 Agustin HERRERA RENAULT CLIO 4 1:47.416 0.584
5 120 Geronimo NUNEZ NISSAN MARCH 4 1:47.503 0.671
6 73 Lucas BAGNERA RENAULT CLIO 5 1:47.582 0.750
7 18 Marcos FERNANDEZ NISSAN MARCH 3 1:47.706 0.874
8 63 Renzo TESTA FIAT PALIO 3 1:47.791 0.959
9 150 Damian MARKEL TOYOTA ETIOS 5 1:47.819 0.987
10 2 Juan P. PASTORI TOYOTA ETIOS 4 1:47.836 1.004
11 6 Miguel CIAURRO VW TREND 3 1:47.868 1.036
12 9 Juan M. ELUCHANS TOYOTA ETIOS 5 1:47.884 1.052
13 43 Walter LOPEZ NISSAN MARCH 5 1:47.910 1.078
14 7 Maximiliano BESTANI NISSAN MARCH 4 1:47.946 1.114
15 78 Alejandro WEIMANN TOYOTA ETIOS 3 1:47.975 1.143
16 13 Joel BORGOBELLO VW TREND 3 1:48.074 1.242
17 113 Christian BODRATO MIONETT RENAULT CLIO 5 1:48.079 1.247
18 36 Alejo BORGIANI VW TREND 3 1:48.262 1.430
19 112 Damian ROMERO TOYOTA ETIOS 5 1:48.278 1.446
20 31 Facundo LEANEZ TOYOTA ETIOS 4 1:48.337 1.505
21 65 Fernando GOMEZ FREDES NISSAN MARCH 4 1:48.390 1.558
22 141 Juan Pablo ROTONDO FIESTA KINETIC 3 1:48.587 1.755
23 66 Martin ALESSI RENAULT CLIO 4 1:48.592 1.760
24 32 Sergio FERNANDEZ NISSAN MARCH 4 1:48.622 1.790
25 47 Ignacio PROCACITTO VW TREND 4 1:48.716 1.884
26 99 Luciano GONZALEZ RENAULT CLIO 4 1:48.792 1.960
27 25 Sebastian PEREZ CHEVROLET ONIX 4 1:48.836 2.004
28 24 Juan I. CANELA FIESTA KINETIC 5 1:48.872 2.040
29 21 Gabriel SCORDIA FIESTA KINETIC 3 1:48.920 2.088
30 72 Lucas TEDESCHI TOYOTA ETIOS 5 1:48.925 2.093
31 39 Alejandro VALDERREY FIAT PALIO 3 1:49.031 2.199
32 35 Diego LEANEZ TOYOTA ETIOS 4 1:49.200 2.368
33 199 Emiliano GIACOPONI CHEVROLET CORSA 4 1:49.398 2.566
34 54 Facundo ROTONDO FIESTA KINETIC 4 1:49.492 2.660
35 100 Ian REUTEMANN FIESTA KINETIC 5 1:50.018 3.186
36 159 Agustin BONOMO DS3 2 1:53.828 6.996
37 61 Sergio SPEDALIERI RENAULT CLIO 3 2:07.824 20.992

Sin Tiempo Auto Nro. 178

Auto Nro. 5 Excluido parcialmente por no respetar regimen de parque cerrado.

Auto Nro. 79 Excluido parcialmente por no ajustarse al Articulo 15.3 del reglamento del campeonato.

Descargas
Título Archivo Descarga
203-608-2-clasifica-clase-2.xls
GENERAL CLASIFICACIÓN C2
Puesto Nro Piloto Marca Vtas Tiempo Dif.
1 14 Ever FRANETOVICH FIAT PALIO 1:46.832
2 1 Nicolas POSCO FIESTA KINETIC 1:47.151 0.319
3 11 Gaston IANSA FIESTA KINETIC 1:47.294 0.462
4 69 Agustin HERRERA RENAULT CLIO 1:47.416 0.584
5 120 Geronimo NUNEZ NISSAN MARCH 1:47.503 0.671
6 73 Lucas BAGNERA RENAULT CLIO 1:47.582 0.750
7 18 Marcos FERNANDEZ NISSAN MARCH 1:47.706 0.874
8 63 Renzo TESTA FIAT PALIO 1:47.791 0.959
9 150 Damian MARKEL TOYOTA ETIOS 1:47.819 0.987
10 2 Juan P. PASTORI TOYOTA ETIOS 1:47.836 1.004
11 6 Miguel CIAURRO VW TREND 1:47.868 1.036
12 9 Juan M. ELUCHANS TOYOTA ETIOS 1:47.884 1.052
13 43 Walter LOPEZ NISSAN MARCH 1:47.910 1.078
14 7 Maximiliano BESTANI NISSAN MARCH 1:47.946 1.114
15 78 Alejandro WEIMANN TOYOTA ETIOS 1:47.975 1.143
16 13 Joel BORGOBELLO VW TREND 1:48.074 1.242
17 113 Christian BODRATO MIONETT RENAULT CLIO 1:48.079 1.247
18 36 Alejo BORGIANI VW TREND 1:48.262 1.430
19 112 Damian ROMERO TOYOTA ETIOS 1:48.278 1.446
20 31 Facundo LEANEZ TOYOTA ETIOS 1:48.337 1.505
21 65 Fernando GOMEZ FREDES NISSAN MARCH 1:48.390 1.558
22 141 Juan Pablo ROTONDO FIESTA KINETIC 1:48.587 1.755
23 66 Martin ALESSI RENAULT CLIO 1:48.592 1.760
24 32 Sergio FERNANDEZ NISSAN MARCH 1:48.622 1.790
25 47 Ignacio PROCACITTO VW TREND 1:48.716 1.884
26 99 Luciano GONZALEZ RENAULT CLIO 1:48.792 1.960
27 25 Sebastian PEREZ CHEVROLET ONIX 1:48.836 2.004
28 24 Juan I. CANELA FIESTA KINETIC 1:48.872 2.040
29 21 Gabriel SCORDIA FIESTA KINETIC 1:48.920 2.088
30 72 Lucas TEDESCHI TOYOTA ETIOS 1:48.925 2.093
31 39 Alejandro VALDERREY FIAT PALIO 1:49.031 2.199
32 35 Diego LEANEZ TOYOTA ETIOS 1:49.200 2.368
33 199 Emiliano GIACOPONI CHEVROLET CORSA 1:49.398 2.566
34 178 Ramiro ALCAINE TOYOTA ETIOS 1:49.440 2.608
35 54 Facundo ROTONDO FIESTA KINETIC 1:49.492 2.660
36 100 Ian REUTEMANN FIESTA KINETIC 1:50.018 3.186
37 5 Gaston GRASSO TOYOTA ETIOS 1:50.084 3.252
38 159 Agustin BONOMO DS3 1:52.758 5.926
39 79 Andres CALDERON VW TREND 1:57.230 10.398
40 61 Sergio SPEDALIERI RENAULT CLIO 2:05.284 18.452
Descargas
ENTRENAMIENTOS
1° ENTRENAMIENTO C2
Puesto Nro Piloto Marca Vtas Tiempo Dif.
1 120 Geronimo NUNEZ NISSAN MARCH 11 1:49.283
2 9 Juan M. ELUCHANS TOYOTA ETIOS 10 1:49.505 0.222
3 73 Lucas BAGNERA RENAULT CLIO 9 1:49.763 0.480
4 11 Gaston IANSA FIESTA KINETIC 7 1:49.986 0.703
5 150 Damian MARKEL TOYOTA ETIOS 9 1:50.121 0.838
6 112 Damian ROMERO TOYOTA ETIOS 9 1:50.235 0.952
7 18 Marcos FERNANDEZ NISSAN MARCH 12 1:50.310 1.027
8 72 Lucas TEDESCHI TOYOTA ETIOS 10 1:50.468 1.185
9 32 Sergio FERNANDEZ NISSAN MARCH 10 1:50.626 1.343
10 1 Nicolas POSCO FIESTA KINETIC 10 1:50.633 1.350
11 26 Damian KIRSTEIN PEUGEOT 208 9 1:50.715 1.432
12 99 Luciano GONZALEZ RENAULT CLIO 9 1:50.724 1.441
13 6 Miguel CIAURRO VW TREND 10 1:50.742 1.459
14 14 Ever FRANETOVICH FIAT PALIO 8 1:50.796 1.513
15 5 Gaston GRASSO TOYOTA ETIOS 10 1:50.844 1.561
16 31 Facundo LEANEZ TOYOTA ETIOS 10 1:50.892 1.609
17 13 Joel BORGOBELLO VW TREND 10 1:51.022 1.739
18 65 Fernando GOMEZ FREDES NISSAN MARCH 12 1:51.061 1.778
19 69 Agustin HERRERA RENAULT CLIO 10 1:51.131 1.848
20 178 Ramiro ALCAINE TOYOTA ETIOS 10 1:51.451 2.168
21 47 Ignacio PROCACITTO VW TREND 10 1:51.527 2.244
22 43 Walter LOPEZ NISSAN MARCH 7 1:51.535 2.252
23 100 Ian REUTEMANN FIESTA KINETIC 9 1:51.682 2.399
24 54 Facundo ROTONDO FIESTA KINETIC 10 1:51.698 2.415
25 39 Alejandro VALDERREY FIAT PALIO 7 1:51.713 2.430
26 141 Juan Pablo ROTONDO FIESTA KINETIC 10 1:51.730 2.447
27 25 Sebastian PEREZ CHEVROLET ONIX 10 1:51.774 2.491
28 63 Renzo TESTA FIAT PALIO 9 1:51.803 2.520
29 113 Christian BODRATO MIONETT RENAULT CLIO 9 1:51.853 2.570
30 66 Martin ALESSI RENAULT CLIO 9 1:51.930 2.647
31 24 Juan I. CANELA FIESTA KINETIC 9 1:52.125 2.842
32 2 Juan P. PASTORI TOYOTA ETIOS 11 1:52.149 2.866
33 35 Diego LEANEZ TOYOTA ETIOS 7 1:52.399 3.116
34 21 Gabriel SCORDIA FIESTA KINETIC 10 1:52.469 3.186
35 36 Alejo BORGIANI VW TREND 12 1:52.563 3.280
36 7 Maximiliano BESTANI NISSAN MARCH 12 1:53.162 3.879
37 78 Alejandro WEIMANN TOYOTA ETIOS 10 1:53.312 4.029
38 159 Agustin BONOMO DS3 9 1:54.311 5.028
39 199 Emiliano GIACOPONI CHEVROLET CORSA 5 1:56.291 7.008
40 79 Andres CALDERON VW TREND 3 2:39.408 50.125
41 61 Sergio SPEDALIERI RENAULT CLIO 3 6:32.628 4:43.345

Auto Nro. 65 Retiro de una vuelta por no realizar circuito oficial.

Descargas
Título Archivo Descarga
203-309-1-entrena-clase-2.xls
2° ENTRENAMIENTO C2
Puesto Nro Piloto Marca Vtas Tiempo Dif.
1 72 Lucas TEDESCHI TOYOTA ETIOS 10 1:48.589
2 13 Joel BORGOBELLO VW TREND 10 1:48.591 0.002
3 11 Gaston IANSA FIESTA KINETIC 9 1:48.715 0.126
4 120 Geronimo NUNEZ NISSAN MARCH 12 1:48.752 0.163
5 73 Lucas BAGNERA RENAULT CLIO 10 1:48.770 0.181
6 43 Walter LOPEZ NISSAN MARCH 12 1:48.961 0.372
7 69 Agustin HERRERA RENAULT CLIO 11 1:49.079 0.490
8 6 Miguel CIAURRO VW TREND 6 1:49.199 0.610
9 14 Ever FRANETOVICH FIAT PALIO 10 1:49.219 0.630
10 9 Juan M. ELUCHANS TOYOTA ETIOS 10 1:49.308 0.719
11 150 Damian MARKEL TOYOTA ETIOS 11 1:49.312 0.723
12 25 Sebastian PEREZ CHEVROLET ONIX 11 1:49.495 0.906
13 2 Juan P. PASTORI TOYOTA ETIOS 9 1:49.631 1.042
14 32 Sergio FERNANDEZ NISSAN MARCH 12 1:49.662 1.073
15 78 Alejandro WEIMANN TOYOTA ETIOS 12 1:49.702 1.113
16 112 Damian ROMERO TOYOTA ETIOS 11 1:49.703 1.114
17 141 Juan Pablo ROTONDO FIESTA KINETIC 9 1:49.726 1.137
18 1 Nicolas POSCO FIESTA KINETIC 11 1:49.747 1.158
19 63 Renzo TESTA FIAT PALIO 10 1:49.759 1.170
20 18 Marcos FERNANDEZ NISSAN MARCH 11 1:49.792 1.203
21 35 Diego LEANEZ TOYOTA ETIOS 11 1:49.936 1.347
22 39 Alejandro VALDERREY FIAT PALIO 11 1:49.980 1.391
23 31 Facundo LEANEZ TOYOTA ETIOS 12 1:50.029 1.440
24 66 Martin ALESSI RENAULT CLIO 12 1:50.034 1.445
25 36 Alejo BORGIANI VW TREND 12 1:50.172 1.583
26 99 Luciano GONZALEZ RENAULT CLIO 10 1:50.242 1.653
27 5 Gaston GRASSO TOYOTA ETIOS 11 1:50.336 1.747
28 47 Ignacio PROCACITTO VW TREND 9 1:50.532 1.943
29 113 Christian BODRATO MIONETT RENAULT CLIO 12 1:50.800 2.211
30 100 Ian REUTEMANN FIESTA KINETIC 11 1:50.850 2.261
31 24 Juan I. CANELA FIESTA KINETIC 10 1:50.947 2.358
32 7 Maximiliano BESTANI NISSAN MARCH 11 1:50.984 2.395
33 54 Facundo ROTONDO FIESTA KINETIC 10 1:51.046 2.457
34 199 Emiliano GIACOPONI CHEVROLET CORSA 10 1:51.468 2.879
35 178 Ramiro ALCAINE TOYOTA ETIOS 11 1:51.493 2.904
36 159 Agustin BONOMO DS3 6 1:51.650 3.061
37 65 Fernando GOMEZ FREDES NISSAN MARCH 3 1:52.255 3.666
38 21 Gabriel SCORDIA FIESTA KINETIC 10 1:52.483 3.894
39 61 Sergio SPEDALIERI RENAULT CLIO 1 2:40.963 52.374

Sin Tiempo Auto Nro. 79

Descargas
Título Archivo Descarga
203-896-2-entre-clase-2-g-a.xls
203-203-2-entre-clase-2-g-b.xls
GENERAL ENTRENAMIENTO C2
Puesto Nro Piloto Marca Vtas Tiempo Dif.
1 72 Lucas TEDESCHI TOYOTA ETIOS 1:48.589
2 13 Joel BORGOBELLO VW TREND 1:48.591 0.002
3 11 Gaston IANSA FIESTA KINETIC 1:48.715 0.126
4 120 Geronimo NUNEZ NISSAN MARCH 1:48.752 0.163
5 73 Lucas BAGNERA RENAULT CLIO 1:48.770 0.181
6 43 Walter LOPEZ NISSAN MARCH 1:48.961 0.372
7 69 Agustin HERRERA RENAULT CLIO 1:49.079 0.490
8 6 Miguel CIAURRO VW TREND 1:49.199 0.610
9 14 Ever FRANETOVICH FIAT PALIO 1:49.219 0.630
10 9 Juan M. ELUCHANS TOYOTA ETIOS 1:49.308 0.719
11 150 Damian MARKEL TOYOTA ETIOS 1:49.312 0.723
12 25 Sebastian PEREZ CHEVROLET ONIX 1:49.495 0.906
13 2 Juan P. PASTORI TOYOTA ETIOS 1:49.631 1.042
14 32 Sergio FERNANDEZ NISSAN MARCH 1:49.662 1.073
15 78 Alejandro WEIMANN TOYOTA ETIOS 1:49.702 1.113
16 112 Damian ROMERO TOYOTA ETIOS 1:49.703 1.114
17 141 Juan Pablo ROTONDO FIESTA KINETIC 1:49.726 1.137
18 1 Nicolas POSCO FIESTA KINETIC 1:49.747 1.158
19 63 Renzo TESTA FIAT PALIO 1:49.759 1.170
20 18 Marcos FERNANDEZ NISSAN MARCH 1:49.792 1.203
21 35 Diego LEANEZ TOYOTA ETIOS 1:49.936 1.347
22 39 Alejandro VALDERREY FIAT PALIO 1:49.980 1.391
23 31 Facundo LEANEZ TOYOTA ETIOS 1:50.029 1.440
24 66 Martin ALESSI RENAULT CLIO 1:50.034 1.445
25 36 Alejo BORGIANI VW TREND 1:50.172 1.583
26 99 Luciano GONZALEZ RENAULT CLIO 1:50.242 1.653
27 5 Gaston GRASSO TOYOTA ETIOS 1:50.336 1.747
28 47 Ignacio PROCACITTO VW TREND 1:50.532 1.943
29 26 Damian KIRSTEIN PEUGEOT 208 1:50.715 2.126
30 113 Christian BODRATO MIONETT RENAULT CLIO 1:50.800 2.211
31 100 Ian REUTEMANN FIESTA KINETIC 1:50.850 2.261
32 24 Juan I. CANELA FIESTA KINETIC 1:50.947 2.358
33 7 Maximiliano BESTANI NISSAN MARCH 1:50.984 2.395
34 54 Facundo ROTONDO FIESTA KINETIC 1:51.046 2.457
35 65 Fernando GOMEZ FREDES NISSAN MARCH 1:51.061 2.472
36 178 Ramiro ALCAINE TOYOTA ETIOS 1:51.451 2.862
37 199 Emiliano GIACOPONI CHEVROLET CORSA 1:51.468 2.879
38 159 Agustin BONOMO DS3 1:51.650 3.061
39 21 Gabriel SCORDIA FIESTA KINETIC 1:52.469 3.880
40 79 Andres CALDERON VW TREND 2:39.408 50.819
41 61 Sergio SPEDALIERI RENAULT CLIO 2:40.963 52.374
Descargas
CALENDARIO AÑO 2019
Nro Fecha Circuito C2 C3
1 24/02 San Luis (La Pedrera)
2 24/03 La Pampa
3 21/04 San Juan
4 12/05 Neuquen
5 02/06 Concordia
6 14/07 San Luis
7 04/08 Obera
8 01/09 Termas de Rio Hondo
9 29/09 Viedma
10 20/10 San Jorge
11 17/11 Rosario
12 08/12 San Nicolas